Home   Weather   Tunis   Past weeks

Flag for Tunisia Past Weather in Tunis, Tunisia — Yesterday and Last 2 Weeks

Now
77 °F

Clear.


Feels Like: 79 °F
Forecast: 72 / 90 °F
Wind: 5 mph from Northwest

Location: Tunis-Carthage

Current Time: Aug 31, 2016 at 10:47:46 PM

Latest Report: Aug 31, 2016 at 10:00 PM


Visibility: 10 mi

Pressure: 30.07 "Hg

Humidity: 79%

Dew Point: 70 °F

Location of TunisLocation

Past Weather in Tunis — Graph

°F

Tunis Temperature Yesterday

Maximum temperature yesterday: 97 °F (at 2:00 PM)
Minimum temperature yesterday: 73 °F (at 4:00 AM)
Average temperature yesterday: 84 °F

High & Low Weather Summary for the Past Weeks

 TemperatureHumidityPressure
High100 °F (Aug 20, 1:00 PM)94% (Aug 19, 1:00 AM)30.09 "Hg (Aug 19, 1:00 AM)
Low68 °F (Aug 26, 6:30 AM)24% (Aug 19, 1:30 PM)29.86 "Hg (Aug 17, 2:30 PM)
Average81 °F63%29.99 "Hg
* Reported Aug 16 9:00 PM — Aug 31 9:30 PM, Tunis, Weather by CustomWeather, © 2016

Note: Actual official high and low records may vary slightly from our data, if they occured in-between our weather recording intervals... More about our weather records

Advertising

Tunis Weather History for the Previous 24 Hours

Scroll right to see more
 ConditionsComfort  
Time TempWeatherWind HumidityBarometerVisibility
9:30 PM
Wed, Aug 31
79 °FClear.3 mph74%30.07 "Hg10 mi
9:00 PM79 °FClear.5 mph70%30.07 "Hg10 mi
8:30 PM79 °FClear.8 mph74%30.07 "Hg10 mi
8:00 PM79 °FPassing clouds.6 mph70%30.07 "HgN/A
7:30 PM81 °FClear.8 mph66%30.04 "Hg10 mi
7:00 PM81 °FClear.10 mph70%30.04 "Hg10 mi
6:30 PM81 °FPassing clouds.13 mph74%30.04 "HgN/A
6:00 PM82 °FPassing clouds.15 mph70%30.01 "HgN/A
5:30 PM84 °FPassing clouds.13 mph58%30.01 "HgN/A
5:00 PM84 °FPassing clouds.13 mph58%30.01 "HgN/A
4:30 PM84 °FPassing clouds.14 mph62%30.01 "HgN/A
4:00 PM84 °FPassing clouds.15 mph62%30.01 "HgN/A
3:30 PM86 °FPassing clouds.13 mph59%30.01 "HgN/A
3:00 PM90 °FPassing clouds.8 mph52%30.01 "HgN/A
2:30 PM90 °FPassing clouds.7 mph52%30.01 "HgN/A
2:00 PM88 °FPassing clouds.8 mph55%30.01 "HgN/A
1:30 PM88 °FPassing clouds.8 mph59%30.01 "HgN/A
1:00 PM86 °FPassing clouds.6 mph62%30.01 "HgN/A
12:30 PM88 °FPassing clouds.6 mph59%30.04 "HgN/A
12:00 PM84 °FScattered clouds.3 mph66%30.04 "HgN/A
11:30 AM84 °FScattered clouds.3 mph62%30.04 "HgN/A
11:00 AM84 °FScattered clouds.8 mph66%30.04 "HgN/A
10:30 AM82 °FScattered clouds.7 mph66%30.04 "HgN/A
10:00 AM82 °FScattered clouds.3 mph66%30.04 "Hg5 mi
9:30 AM81 °FScattered clouds.5 mph70%30.01 "Hg5 mi
8:30 AM77 °FScattered clouds.6 mph79%30.07 "Hg5 mi
8:00 AM77 °FScattered clouds.6 mph79%30.04 "Hg5 mi
7:30 AM77 °FScattered clouds.7 mph83%30.01 "Hg5 mi
7:00 AM77 °FScattered clouds.3 mph83%30.01 "HgN/A
6:00 AM75 °FPassing clouds.No wind83%30.01 "HgN/A
5:30 AM75 °FPassing clouds.3 mph83%29.98 "HgN/A
5:00 AM77 °FPassing clouds.5 mph79%29.98 "HgN/A
4:30 AM77 °FPassing clouds.8 mph83%29.98 "HgN/A
4:00 AM75 °FPassing clouds.5 mph89%30.01 "HgN/A
3:00 AM77 °FPassing clouds.6 mph83%30.01 "HgN/A
2:30 AM77 °FPassing clouds.6 mph83%30.01 "HgN/A
1:30 AM77 °FPassing clouds.6 mph83%30.01 "HgN/A
1:00 AM77 °FPassing clouds.3 mph83%30.01 "HgN/A
12:30 AM79 °FPassing clouds.6 mph79%30.01 "HgN/A
12:00 AM79 °FPassing clouds.9 mph79%30.01 "HgN/A
11:30 PM
Tue, Aug 30
79 °FPassing clouds.9 mph79%30.01 "HgN/A
11:00 PM79 °FPassing clouds.9 mph79%30.01 "HgN/A
10:30 PM81 °FPassing clouds.9 mph74%30.04 "HgN/A
10:00 PM81 °FPassing clouds.12 mph74%30.01 "HgN/A
Weather by CustomWeather, © 2016

See weather overviewHow to use our weather pages